Other Surface Observations
Issued by NWS Tucson, AZ

Current Version | Previous Version | Text Only | Print | Product List | Glossary On
Versions: 1 2 3 4 5 6 7 8 9 10 11 12 13 14 15 16 17 18 19 20 21 22 23 24 25 26 27 28 29 30 31 32 33 34 35 36 37 38 39 40 41 42 43 44 45 46 47 48 49 50
000
SXUS55 KTWC 300116
OSOTWC

WEATHER ROUNDUP FOR SOUTHEAST ARIZONA
NATIONAL WEATHER SERVICE TUCSON AZ
615 PM MST FRI AUG 29 2014

AZZ504>506-514-300215-
LOCATION       SKY/WX    TMP DP  RH WIND       PRES   REMARKS
TUCSON         CLEAR     99  34  10 W7        29.86S
DAVIS-MONTHAN  CLEAR     97  38  12 VRB2      29.83S
CHILDRENS PARK N/A       99  40  13 NW5               PIMA CO DEQ
ALVERNON/22ND  N/A      N/A N/A N/A N/A               PIMA CO DEQ
CHERRY/GLENN   N/A      N/A N/A N/A N/A               PIMA CO DEQ
TANGERINE      N/A      100 N/A N/A W8                PIMA CO DEQ
CONTL RANCH    N/A      102  40  12 W6                PIMA CO DEQ
GRANT/1ST      N/A      100  38  12 NW5               PIMA CO DEQ
CRAYCROFT/22ND N/A      N/A N/A N/A N/A               PIMA CO DEQ
GOLFLINKS/KOLB N/A      N/A N/A N/A N/A               PIMA CO DEQ
AJO/12TH       N/A      100  36  11 SW3               PIMA CO DEQ
SAGUARO EAST   N/A      N/A N/A N/A N/A               PIMA CO DEQ
FAIRGROUNDS    N/A       98 N/A N/A NW4               PIMA CO DEQ
SAGUARO        N/A      100  40  13 W7G14             *SABINO CYN
SAN CARLOS     N/A      100  31   9 NW3               *SAN CARLOS
GREEN VALLEY   N/A       99  35  11 NE5               PIMA CO DEQ
HORSE CAMP CYN N/A       94  36  13 SW8G17            *ARAVAIPA CYN
RINCON MTNS    N/A       73  40  30 NW2               *NR MANNING CAMP
$$

AZZ509>511-300215-
LOCATION       SKY/WX    TMP DP  RH WIND       PRES   REMARKS
SAFFORD        CLEAR     95  40  14 SW8       29.87S
STRAY HORSE    N/A       75  37  25 SW4G10            *
TRAIL CABIN    N/A       84  39  20 W3G13             *N OF GRANVILLE
BLACK HILLS    N/A       96  41  15 W6G10             *N OF FT THOMAS
DRY LAKE       N/A       74  40  29 SW3               *NATANES MTNS
NOON CREEK     N/A       86  48  27 SW3               *PINALENO MTNS
COLUMBINE      N/A       64  40  42 CALM              *PINALENO MTNS
GUTHRIE        N/A       84  37  19 W6G13             *SW OF GUTHRIE
$$

AZZ502-503-513-300215-
LOCATION       SKY/WX    TMP DP  RH WIND       PRES   REMARKS
NOGALES        CLEAR     89  49  25 W3        29.95S
SELLS          N/A      101  41  13 W10G18            *
SASABE         N/A       97  38  13 NW4G11            *ALTAR VLY
HOPKINS        N/A       79  47  32 S6G13             *SANTA RITA MTNS
CARR CYN       N/A       74  57  56 SW2               *W OF HEREFORD
$$

AZZ507-508-512-300215-
LOCATION       SKY/WX    TMP DP  RH WIND       PRES   REMARKS
SIERRA VISTA   PTCLDY    88  43  20 E5        30.03F
DOUGLAS        FAIR      88  43  20 CALM      29.98S
EMPIRE MTNS    N/A       90  41  18 W3                *LAS CIENEGAS NCA
MULESHOE RANCH N/A       93  38  15 NW2G12            *PRESERVE
HEADQUARTERS   N/A       85  45  25 W3G11             *CHIRICAHUA MTNS
$$

.............................NOTES.............................
THIS IS AN AUTOMATED COLLECTIVE WITH MINIMAL QUALITY CONTROL.
PIMA CO DEQ SITES HAVE NONSTANDARD WIND SENSOR HEIGHTS.
PIMA CO DEQ SITES DO NOT REPORT WIND GUSTS.
* INDICATES WIND SENSORS LOCATED AT 20 FEET INSTEAD OF 33 FEET.
..............................KEY..............................
SKY/WX - SKY CONDITION/WEATHER
TMP    - TEMPERATURE IN FAHRENHEIT
DP     - DEWPOINT IN FAHRENHEIT
RH     - RELATIVE HUMIDITY IN PERCENT
WIND   - DIRECTION AND SPEED IN MILES PER HOUR (MPH)
VRB    - VARIABLE WIND DIRECTION
PRES   - MEAN SEA LEVEL PRESSURE IN INCHES OF MERCURY
         F - FALLING PRESSURE   R - RISING PRESSURE
         S - STEADY PRESSURE
VSB    - VISIBILITY IN MILES
HX     - HEAT INDEX IN FAHRENHEIT
WCI    - WIND CHILL INDEX IN FAHRENHEIT
N/A    - NOT AVAILABLE
AFB    - AIR FORCE BASE
         DAVIS-MONTHAN IS DAVIS-MONTHAN AIR FORCE BASE
CYN    - CANYON
MTNS   - MOUNTAINS
NCA    - NATIONAL CONSERVATION AREA
NR     - NEAR
VLY    - VALLEY
CONTL  - CONTINENTAL
PIMA CO DEQ - PIMA COUNTY DEPT OF ENVIRONMENTAL QUALITY



USA.gov is the U.S. government's official web portal to all federal, state and local government web resources and services.